Simultaneous Nadir Overpasses (SNOs) Predictions

Prediction of SNOs between NOAA-19 and NPP Satellite Orbit:

Table of predicted SNOs for the next 14.0 days since TLE Epoch: 2/22/2014
Index Date (NOAA-19) Time (NOAA-19) Lat,Lon (NOAA-19) SZA (NOAA-19 ) Date (NPP) Time (NPP) Lat,Lon (NPP) SZA (NPP ) Distance(km) Time Diff (sec)
1 03/05/2014 14:03:20 81.00, -85.03 90.98 03/05/2014 14:04:32 81.00, -84.89 90.93 2.32 72
2 03/05/2014 14:54:23 -80.98, 83.05 89.16 03/05/2014 14:55:16 -80.98, 82.87 89.16 3.26 53
3 03/05/2014 15:45:22 80.98,-109.83 90.85 03/05/2014 15:46:01 80.99,-109.92 90.85 1.65 39
4 03/05/2014 16:36:27 -80.98, 57.51 89.18 03/05/2014 16:36:46 -80.98, 57.47 89.19 0.72 19
5 03/05/2014 17:27:25 80.97,-135.00 90.78 03/05/2014 17:27:30 80.97,-134.95 90.77 0.99 5
6 03/05/2014 18:18:30 -80.97, 32.34 89.26 03/05/2014 18:18:15 -80.97, 32.45 89.27 1.86 15
7 03/05/2014 19:09:27 80.95,-159.81 90.65 03/05/2014 19:08:59 80.96,-159.97 90.69 2.98 28
8 03/05/2014 20:00:32 -80.95, 7.53 89.39 03/05/2014 19:59:44 -80.95, 7.42 89.35 2.12 48




NCC Satellite Simultaneous Nadir Overpasses (SNOs) Prediction Service
